User: anonymous   Login
Location: Bushey
(51.6333°N, 0.3667°W)
Time: 21:23:12
(UTC+00:00)
Language:

Okean-O - Orbit

View from above orbital plane
View from above orbital plane
View from above satellite
View from above satellite

Ground track
Ground track

The orbit data is extracted from the following two-line orbital elements,

1 25860U 99039A   21128.35074854  .00000041  00000-0  13399-4 0  9995
2 25860  98.1863 158.5443 0000823  91.0297 269.1006 14.76730673173558
Epoch (UTC): 08 May 2021 08:25:04
Eccentricity: 0.0000823
inclination: 98.1863°
perigee height: 639 km
apogee height: 640 km
right ascension of ascending node: 158.5443°
argument of perigee: 91.0297°
revolutions per day: 14.76730673
mean anomaly at epoch: 269.1006°
orbit number at epoch: 17355

The dashed part of the orbit path shows where the satellite is in the earth's shadow,  

DLR